timestamp,surface_pressure_avg,surface_temp_avg,battery_voltage,lat,long
2020-02-16 00:09:01+00:00,227.6214,1.0,12.81,47.84626,-54.09684
2020-02-16 00:19:01+00:00,224.5614,0.97,12.65,47.84626,-54.09684
2020-02-16 00:29:01+00:00,223.1348,0.9,12.65,47.84626,-54.09684
2020-02-16 00:39:01+00:00,226.1181,0.89,12.65,47.84626,-54.09684
2020-02-16 00:49:01+00:00,227.6164,0.9,12.65,47.84626,-54.09684
2020-02-16 00:59:01+00:00,228.8431,0.8,12.65,47.84626,-54.09684
2020-02-16 01:09:01+00:00,230.5664,0.7,12.65,47.84626,-54.09684
2020-02-16 01:19:01+00:00,235.6748,0.6,12.57,47.84626,-54.09684
2020-02-16 01:29:01+00:00,239.3747,0.55,12.57,47.84626,-54.09684
2020-02-16 01:39:01+00:00,237.4248,0.5,12.57,47.84626,-54.09684
2020-02-16 01:49:01+00:00,238.5097,0.47,12.57,47.84626,-54.09684
2020-02-16 01:59:01+00:00,245.4048,0.43,12.57,47.84626,-54.09684
2020-02-16 02:09:01+00:00,250.6448,0.4,12.57,47.84626,-54.09684
2020-02-16 02:19:01+00:00,250.5064,0.4,12.57,47.84626,-54.09684
2020-02-16 02:29:01+00:00,254.7931,0.4,12.57,47.84626,-54.09684
2020-02-16 02:39:01+00:00,263.3097,0.39,12.57,47.84626,-54.09684
2020-02-16 02:49:01+00:00,271.1597,0.37,12.57,47.84626,-54.09684
2020-02-16 02:59:01+00:00,275.1813,0.37,12.57,47.84626,-54.09684
2020-02-16 03:09:01+00:00,281.618,0.3,12.57,47.84626,-54.09684
2020-02-16 03:19:01+00:00,291.2479,0.34,12.49,47.84626,-54.09684
2020-02-16 03:29:01+00:00,296.8331,0.3,12.49,47.84626,-54.09684
2020-02-16 03:39:01+00:00,298.4963,0.3,12.49,47.84626,-54.09684
2020-02-16 03:49:01+00:00,305.608,0.3,12.49,47.84626,-54.09684
2020-02-16 03:59:01+00:00,312.1229,0.3,12.49,47.84626,-54.09684
2020-02-16 04:09:01+00:00,313.233,0.27,12.49,47.84626,-54.09684
2020-02-16 04:19:01+00:00,311.0747,0.24,12.49,47.84626,-54.09684
2020-02-16 04:29:01+00:00,312.3246,0.26,12.49,47.84626,-54.09684
2020-02-16 04:39:01+00:00,318.08299999999997,0.28,12.49,47.84626,-54.09684
2020-02-16 04:49:01+00:00,322.8629,0.29,12.49,47.84626,-54.09684
2020-02-16 04:59:01+00:00,322.9763,0.3,12.49,47.84626,-54.09684
2020-02-16 05:09:01+00:00,320.5896,0.3,12.49,47.84626,-54.09684
2020-02-16 05:19:01+00:00,322.673,0.3,12.49,47.84626,-54.09684
2020-02-16 05:29:01+00:00,325.393,0.3,12.49,47.84626,-54.09684
2020-02-16 05:39:01+00:00,320.1597,0.3,12.49,47.84626,-54.09684
2020-02-16 05:49:01+00:00,316.9146,0.3,12.49,47.84626,-54.09684
2020-02-16 05:59:01+00:00,318.9263,0.3,12.49,47.84626,-54.09684
2020-02-16 06:09:01+00:00,318.9514,0.3,12.49,47.84626,-54.09684
2020-02-16 06:19:01+00:00,316.8064,0.3,12.49,47.84626,-54.09684
2020-02-16 06:29:01+00:00,317.0347,0.3,12.49,47.84626,-54.09684
2020-02-16 06:39:01+00:00,317.1563,0.3,12.49,47.84626,-54.09684
2020-02-16 06:49:01+00:00,310.578,0.3,12.49,47.84626,-54.09684
2020-02-16 06:59:01+00:00,305.64799999999997,0.3,12.49,47.84626,-54.09684
2020-02-16 07:09:01+00:00,306.1046,0.3,12.49,47.84626,-54.09684
2020-02-16 07:19:01+00:00,300.393,0.3,12.49,47.84626,-54.09684
2020-02-16 07:29:01+00:00,288.6364,0.3,12.49,47.84626,-54.09684
2020-02-16 07:39:01+00:00,284.2248,0.3,12.49,47.84626,-54.09684
2020-02-16 07:49:01+00:00,281.4664,0.3,12.49,47.84626,-54.09684
2020-02-16 07:59:01+00:00,272.9931,0.3,12.49,47.84626,-54.09684
2020-02-16 08:09:01+00:00,263.7731,0.3,12.49,47.84626,-54.09684
2020-02-16 08:19:01+00:00,260.5431,0.3,12.49,47.84626,-54.09684
2020-02-16 08:29:01+00:00,252.0598,0.3,12.49,47.84626,-54.09684
2020-02-16 08:39:01+00:00,240.2514,0.3,12.49,47.84626,-54.09684
2020-02-16 08:49:01+00:00,232.0547,0.3,12.49,47.84626,-54.09684
2020-02-16 08:59:01+00:00,228.6515,0.3,12.49,47.84626,-54.09684
2020-02-16 09:09:01+00:00,219.1714,0.3,12.49,47.84626,-54.09684
2020-02-16 09:19:01+00:00,207.5231,0.3,12.49,47.84626,-54.09684
2020-02-16 09:29:01+00:00,206.0065,0.3,12.49,47.84626,-54.09684
2020-02-16 09:39:01+00:00,207.0582,0.3,12.49,47.84626,-54.09684
2020-02-16 09:49:01+00:00,202.9847,0.3,12.49,47.84626,-54.09684
2020-02-16 09:59:01+00:00,200.4948,0.3,12.49,47.84626,-54.09684
2020-02-16 10:09:01+00:00,199.9581,0.3,12.49,47.84626,-54.09684
2020-02-16 10:19:01+00:00,194.3565,0.3,12.49,47.84626,-54.09684
2020-02-16 10:29:01+00:00,190.7031,0.3,12.49,47.84626,-54.09684
2020-02-16 10:39:01+00:00,191.5648,0.3,12.49,47.84626,-54.09684
2020-02-16 10:49:01+00:00,191.0098,0.29,12.49,47.84626,-54.09684
2020-02-16 10:59:01+00:00,192.2815,0.29,12.49,47.84626,-54.09684
2020-02-16 11:09:01+00:00,193.4381,0.27,12.49,47.84626,-54.09684
2020-02-16 11:19:01+00:00,192.2532,0.25,12.49,47.84626,-54.09684
2020-02-16 11:29:01+00:00,196.6331,0.2,12.49,47.84626,-54.09684
2020-02-16 11:39:01+00:00,202.9698,0.2,12.49,47.84626,-54.09684
2020-02-16 11:49:01+00:00,202.6015,0.2,12.49,47.84626,-54.09684
2020-02-16 11:59:01+00:00,200.3881,0.23,12.49,47.84626,-54.09684
2020-02-16 12:09:01+00:00,203.1431,0.22,12.49,47.84626,-54.09684
2020-02-16 12:19:01+00:00,200.9164,0.3,12.65,47.84626,-54.09684
2020-02-16 12:29:01+00:00,198.2048,0.36,12.65,47.84626,-54.09684
2020-02-16 12:39:01+00:00,198.7198,0.34,12.65,47.84626,-54.09684
2020-02-16 12:49:01+00:00,201.2998,0.4,12.65,47.84626,-54.09684
2020-02-16 12:59:01+00:00,204.7698,0.4,12.65,47.84626,-54.09684
2020-02-16 13:09:01+00:00,207.0631,0.42,12.65,47.84626,-54.09684
2020-02-16 13:19:01+00:00,208.6248,0.43,13.05,47.84626,-54.09684
2020-02-16 13:29:01+00:00,214.1681,0.4,13.05,47.84626,-54.09684
2020-02-16 13:39:01+00:00,222.4015,0.39,13.05,47.84626,-54.09684
2020-02-16 13:49:01+00:00,225.2081,0.3,13.05,47.84626,-54.09684
2020-02-16 13:59:01+00:00,225.4114,0.27,13.05,47.84626,-54.09684
2020-02-16 14:09:01+00:00,228.6314,0.23,13.05,47.84626,-54.09684
2020-02-16 14:19:01+00:00,233.3064,0.21,13.29,47.84626,-54.09684
2020-02-16 14:29:01+00:00,235.2398,0.2,13.29,47.84626,-54.09684
2020-02-16 14:39:01+00:00,239.3631,0.2,13.29,47.84626,-54.09684
2020-02-16 14:49:01+00:00,248.9464,0.2,13.29,47.84626,-54.09684
2020-02-16 14:59:01+00:00,254.7181,0.29,13.29,47.84626,-54.09684
2020-02-16 15:09:01+00:00,256.3597,0.39,13.29,47.84626,-54.09684
2020-02-16 15:19:01+00:00,257.9964,0.4,13.68,47.84626,-54.09684
2020-02-16 15:29:01+00:00,264.4864,0.4,13.68,47.84626,-54.09684
2020-02-16 15:39:01+00:00,274.0931,0.4,13.68,47.84626,-54.09684
2020-02-16 15:49:01+00:00,275.2897,0.4,13.68,47.84626,-54.09684
2020-02-16 15:59:01+00:00,277.5081,0.3,13.68,47.84626,-54.09684
2020-02-16 16:09:01+00:00,286.8597,0.4,13.68,47.84626,-54.09684
2020-02-16 16:19:01+00:00,296.6297,0.42,13.76,47.84626,-54.09684
2020-02-16 16:29:01+00:00,296.3364,0.43,13.76,47.84626,-54.09684
2020-02-16 16:39:01+00:00,295.8464,0.47,13.76,47.84626,-54.09684
2020-02-16 16:49:01+00:00,301.863,0.47,13.76,47.84626,-54.09684
2020-02-16 16:59:01+00:00,306.563,0.48,13.76,47.84626,-54.09684
2020-02-16 17:09:01+00:00,306.478,0.48,13.76,47.84626,-54.09684
2020-02-16 17:19:01+00:00,308.9847,0.45,13.92,47.84626,-54.09684
2020-02-16 17:29:01+00:00,312.0864,0.48,13.92,47.84626,-54.09684
2020-02-16 17:39:01+00:00,312.2313,0.5,13.92,47.84626,-54.09684
2020-02-16 17:49:01+00:00,314.8413,0.52,13.92,47.84626,-54.09684
2020-02-16 17:59:01+00:00,316.8297,0.58,13.92,47.84626,-54.09684
2020-02-16 18:09:01+00:00,315.1663,0.59,13.92,47.84626,-54.09684
2020-02-16 18:19:01+00:00,310.7513,0.6,14.0,47.84626,-54.09684
2020-02-16 18:29:01+00:00,310.6513,0.6,14.0,47.84626,-54.09684
2020-02-16 18:39:01+00:00,311.3762,0.6,14.0,47.84626,-54.09684
2020-02-16 18:49:01+00:00,308.5013,0.59,14.0,47.84626,-54.09684
2020-02-16 18:59:01+00:00,308.738,0.57,14.0,47.84626,-54.09684
2020-02-16 19:09:01+00:00,308.0764,0.54,14.0,47.84626,-54.09684
2020-02-16 19:19:01+00:00,300.183,0.5,13.84,47.84626,-54.09684
2020-02-16 19:29:01+00:00,296.4197,0.5,13.84,47.84626,-54.09684
2020-02-16 19:39:01+00:00,300.7697,0.5,13.84,47.84626,-54.09684
2020-02-16 19:49:01+00:00,295.328,0.5,13.84,47.84626,-54.09684
2020-02-16 19:59:01+00:00,287.1414,0.5,13.84,47.84626,-54.09684
2020-02-16 20:09:01+00:00,286.2814,0.5,13.84,47.84626,-54.09684
2020-02-16 20:19:01+00:00,282.4214,0.5,13.6,47.84626,-54.09684
2020-02-16 20:29:01+00:00,269.1764,0.5,13.6,47.84626,-54.09684
2020-02-16 20:39:01+00:00,262.6814,0.5,13.6,47.84626,-54.09684
2020-02-16 20:49:01+00:00,261.1648,0.5,13.6,47.84626,-54.09684
2020-02-16 20:59:01+00:00,254.7331,0.49,13.6,47.84626,-54.09684
2020-02-16 21:09:01+00:00,243.4114,0.45,13.6,47.84626,-54.09684
2020-02-16 21:19:01+00:00,236.9014,0.4,13.13,47.84626,-54.09684
2020-02-16 21:29:01+00:00,232.7214,0.4,13.13,47.84626,-54.09684
2020-02-16 21:39:01+00:00,226.0615,0.4,13.13,47.84626,-54.09684
2020-02-16 21:49:01+00:00,220.8998,0.4,13.13,47.84626,-54.09684
2020-02-16 21:59:01+00:00,217.3098,0.4,13.13,47.84626,-54.09684
2020-02-16 22:09:01+00:00,212.6898,0.4,13.13,47.84626,-54.09684
2020-02-16 22:19:01+00:00,208.2681,0.4,12.81,47.84626,-54.09684
2020-02-16 22:29:01+00:00,206.798,0.4,12.81,47.84626,-54.09684
2020-02-16 22:39:01+00:00,203.0948,0.4,12.81,47.84626,-54.09684
2020-02-16 22:49:01+00:00,202.7715,0.4,12.81,47.84626,-54.09684
2020-02-16 22:59:01+00:00,206.6714,0.4,12.81,47.84626,-54.09684
2020-02-16 23:09:01+00:00,208.9764,0.4,12.81,47.84626,-54.09684
2020-02-16 23:19:01+00:00,206.9164,0.4,12.65,47.84626,-54.09684
2020-02-16 23:29:01+00:00,207.8181,0.4,12.65,47.84626,-54.09684
2020-02-16 23:39:01+00:00,211.9898,0.4,12.65,47.84626,-54.09684
2020-02-16 23:49:01+00:00,213.6631,0.4,12.65,47.84626,-54.09684
2020-02-16 23:59:01+00:00,214.0198,0.4,12.65,47.84626,-54.09684
